Showing default

KUIPER-00386, 68921

Orbit data source: Space-Track

KUIPER-00386, 68921 is a payload satellite owned by Kuiper Systems (US) in LEO that was launched on Thu, 30 Apr 2026 UTC via an ARIANE 64 launch vehicle from the French Guiana (FRGUI). Payload-class satellites include a variety of spacecraft equipped with specific instruments for various scientific and technological missions. These include communications satellites like Starlink; space stations such as the ISS; scientific satellites like the Hubble; Earth observation satellites from companies like Planet Labs, Umbra, and HawkEye 360; GPS; miniature CubeSats for education and research; and military/defense satellites.

Loading next visibility...
Identifier
68921, 2026-098C
Orbit
LEO
Country
Flag of USUS
Related business
Manufacturer
Kuiper Systems
Mission
Operational Commercial Communications
Bus & Motor
KUIPER, Unknown motor
Mass
~490 kg wet, ~490 kg dry
Launch date (UTC)
2026-04-30 (3 months ago)
Launch vehicle
ARIANE 64
Launch site
French Guiana (FRGUI)
Object type
Payload
Rocket body
Debris
Shape & HBR
Box + 2 Pan, 3.4 m
Radar Cross Section
2.326 m², Large (>1 m²)

Expand to show TLE details & history
Last TLE update: 18 hours ago

TLE from 18 hours ago
0 KUIPER-00386
1 68921U 26098C   26207.58335648 -.01772084  00000-0 -14638+0 0  9992
2 68921  51.8919 239.4464 0003130  19.1835 170.5211 15.02128436  5809
Epoch: 2026-07-26T14:00Z
TLE epoch observation values (Epoch: 2026-07-26T14:00:01.999Z)
Latitude
-7.74766°
Longitude
-88.74906°
Altitude
564.561 km
Speed
7.579 km/s
True Right ascension
04h 22m 09s
True Declination
-7° 42' 02"
Sunlit
Object was in daylight at epoch
Visualization orbit readout
Latitude
Unknown
Longitude
Unknown
Altitude
Unknown
Speed
Unknown
Apparent Right ascension
Unknown
Apparent Declination
Unknown
Sunlit
N/A
Visualization observer readout
Local Sidereal Time
21:06:32
Azimuth
Unknown
Elevation
Unknown
Doppler factor
Unknown
Orbital elements
Apogee altitude
562.963 km
Perigee altitude
558.619 km
Semi-major axis
6,938.928 km
Eccentricity
0.00031
Inclination
51.8919°
RAAN
239.4464°
Arg. of periapsis
19.1835°
True anomaly
170.527°
Mean anomaly
170.5211°
Eccentric anomaly
170.52405°
Mean motion
3.75495 °/min
Orbital period
95.87 mins
BSTAR
-0.14638
Loading maneuver chart data...
Computing Atmospheric mass density...
Loading historical data...
Loading historical data...
Loading historical data...
Loading historical data...
Loading historical data...
Loading historical data...
Loading historical data...

Documentation

Showing up to 5 results
|